Dewpoint
49 50 50 51 51 51 52 52 52 52 52 52 52 53 53 53 53 46 36 34 43 53 59 43 53 49 43 38 47 35 29 26 26 27 28 32 33 33 36 35 33 35 39 39 41
50 50 50 51 51 51 51 52 52 52 52 52 52 52 52 52 48 43 40 48 53 58 44 28 26 44 35 35 46 40 30 26 27 26 28 27 29 35 35 34 32 33 38 38 39
49 50 50 51 51 51 51 51 51 52 52 51 52 52 52 51 36 20 57 55 55 56 50 38 29 29 35 45 42 45 41 30 27 27 29 32 30 29 28 28 30 31 36 35 37
50 51 51 51 52 52 52 52 52 52 51 51 51 51 50 47 -19 17 57 53 51 40 48 39 33 27 26 33 43 43 44 43 40 38 41 38 37 35 29 29 31 33 34 36 35
50 51 51 51 51 51 51 52 52 52 52 51 51 50 45 39 36 26 46 40 30 42 47 39 29 27 24 24 27 30 40 42 42 42 43 44 43 41 38 35 35 34 34 36 36
50 50 51 51 51 51 52 52 52 52 52 50 50 49 42 36 37 36 34 32 27 26 26 39 28 26 22 21 24 26 29 29 32 36 36 35 34 34 34 36 35 35 36 34 33
51 51 51 51 51 52 52 52 52 52 52 52 51 46 41 39 40 39 37 36 34 31 26 26 33 25 23 24 24 24 22 24 24 24 28 33 30 31 33 33 33 33 32 32 34
49 51 50 50 50 50 52 53 53 53 53 52 50 45 40 42 41 40 39 38 38 37 31 28 25 24 27 26 26 25 23 19 22 24 25 25 28 31 34 32 32 32 31 31 32
50 51 50 50 50 51 53 53 53 53 52 52 47 44 39 45 40 40 40 35 32 29 29 25 21 20 24 23 24 25 25 23 21 25 26 24 27 30 30 30 31 32 33 34 34
49 50 50 50 51 52 52 52 51 49 49 49 46 39 35 24 27 28 29 29 31 27 23 20 17 18 18 23 21 24 24 26 24 23 24 23 24 26 29 29 29 29 30 30 31
49 49 50 51 51 51 50 43 33 30 31 29 28 28 28 28 30 28 29 27 25 26 20 18 15 14 17 19 22 21 23 25 25 25 23 23 24 24 26 27 26 27 27 28 31
49 49 49 51 51 51 45 39 36 32 29 30 30 29 29 31 29 29 29 24 23 19 19 18 15 18 18 19 18 18 19 21 24 25 24 25 25 26 27 27 28 30 31 32 32
49 49 50 50 51 44 41 40 37 34 28 28 27 31 23 27 27 26 25 24 23 20 18 18 18 18 17 18 18 19 20 20 22 24 23 22 20 20 24 28 28 29 30 32 33
50 50 50 50 42 43 40 39 40 33 24 24 24 25 24 24 24 27 26 24 21 17 16 14 14 13 13 15 16 14 21 22 23 22 18 20 16 17 17 18 24 24 25 28 31
49 49 50 49 43 42 38 42 39 30 8 21 24 24 26 21 22 27 35 30 24 20 16 13 13 12 9 11 13 18 20 22 21 21 20 21 19 14 18 17 18 20 23 26 28
50 49 49 44 43 44 44 41 33 21 10 23 23 27 26 24 21 25 27 30 32 29 19 16 15 13 11 11 13 16 20 19 20 20 18 18 19 16 15 17 20 25 26 27 29
50 49 48 46 36 41 40 34 22 17 26 24 25 27 26 20 20 24 24 27 29 26 25 22 16 14 13 11 14 14 12 15 16 18 17 19 18 17 22 23 22 23 24 26 27
49 49 46 46 45 42 34 27 16 26 26 27 26 27 18 21 22 24 24 26 29 29 25 24 19 18 25 17 17 11 11 14 12 15 15 17 17 18 21 22 20 20 21 26 35
48 42 42 43 45 39 29 23 22 28 27 24 26 24 21 22 25 24 23 27 29 32 26 25 20 25 22 22 21 20 8 10 7 15 13 18 20 22 21 17 21 21 21 30 45
41 41 41 42 41 36 29 26 27 30 26 26 27 27 23 22 24 23 25 29 28 31 31 26 21 24 22 22 21 19 20 9 11 10 11 16 17 18 22 18 24 23 24 38 54
40 37 40 39 39 34 25 27 28 28 27 29 29 27 24 25 24 24 26 27 30 29 30 28 25 23 24 20 14 19 21 18 11 14 14 14 18 23 21 21 22 23 26 49 55
37 31 40 37 31 30 26 29 34 29 32 31 31 29 26 27 26 25 26 29 29 32 29 33 29 27 24 23 23 23 22 23 16 11 16 17 15 18 20 20 23 35 40 54 56
37 37 41 35 24 25 29 30 32 32 33 33 32 30 30 28 26 28 28 29 28 32 32 33 27 22 18 26 29 25 27 26 30 26 22 13 14 18 20 22 33 43 51 54 56
39 32 32 33 33 28 31 31 32 34 34 34 33 32 31 29 29 28 28 29 32 33 36 35 28 24 19 21 27 27 27 31 30 26 22 18 17 16 19 29 27 49 52 52 56
36 32 33 29 31 33 34 31 31 30 36 35 34 32 32 32 30 29 30 31 33 36 37 34 28 29 28 28 30 29 29 30 29 29 27 26 26 21 29 28 29 47 51 54 56
34 33 36 33 35 31 31 30 31 32 33 33 35 35 33 31 31 30 32 33 32 35 34 37 28 31 27 28 26 32 30 30 29 28 28 28 27 28 29 44 47 47 51 54 54
37 37 38 32 31 30 31 31 32 35 35 36 36 35 33 33 34 35 36 37 36 33 33 33 30 27 22 23 28 26 28 29 29 27 27 26 27 28 33 38 49 49 52 53 54
Lifted_Index
13 13 13 13 13 13 13 13 13 13 13 13 13 13 13 13 14 13 11 10 9 8 7 6 4 4 5 4 4 5 5 4 3 3 3 3 2 2 1 1 2 2 2 2 2
13 13 13 13 13 13 13 13 13 13 13 13 13 13 13 14 13 12 11 10 9 8 7 6 5 5 4 4 3 4 5 4 4 3 3 3 3 2 1 1 1 1 1 2 2
13 13 13 13 13 13 13 13 13 13 13 13 13 13 14 13 12 11 10 10 10 8 7 7 6 5 4 4 3 3 3 4 3 3 3 3 3 2 2 2 1 1 1 1 1
13 13 13 13 13 13 13 13 13 13 13 13 13 13 14 13 11 11 11 11 11 9 8 7 6 5 4 4 3 3 3 3 2 2 2 2 2 3 3 2 2 1 1 1 1
13 13 13 13 13 13 12 12 12 12 12 13 13 13 14 12 12 13 13 13 12 10 8 7 6 5 4 4 4 4 3 3 2 2 1 1 2 2 3 3 2 2 2 2 2
13 13 13 13 13 13 12 12 12 12 12 12 13 13 13 12 13 14 14 14 13 11 9 8 8 7 5 5 4 4 4 3 3 2 2 2 2 3 4 3 3 2 2 2 2
13 13 13 13 13 13 12 12 12 12 12 12 12 13 13 13 13 13 13 14 14 13 11 9 9 8 7 6 5 4 4 4 4 4 3 3 3 4 4 4 3 3 2 2 2
13 13 13 13 13 13 12 12 12 11 11 11 12 13 13 13 12 12 12 12 13 13 12 10 9 9 8 7 6 5 4 4 4 4 4 3 4 4 4 3 3 3 3 3 2
13 13 13 13 13 12 12 12 12 11 11 11 12 12 13 13 12 12 12 12 13 13 12 10 9 9 8 6 5 4 4 4 5 5 4 4 5 5 4 4 3 3 3 3 3
13 13 13 13 12 12 12 12 12 12 11 12 12 12 13 13 13 13 12 12 13 13 12 10 9 8 7 6 5 4 4 4 5 5 5 5 5 5 5 4 4 4 4 4 4
13 13 13 13 12 12 12 12 12 12 12 12 11 11 11 11 11 12 12 12 12 12 11 10 9 8 8 7 6 6 5 5 6 5 5 5 5 6 6 6 6 5 5 5 5
13 13 13 13 12 12 12 12 12 11 11 10 8 7 6 6 7 7 8 9 10 10 11 10 10 9 9 8 8 7 7 6 6 5 5 5 6 6 7 7 6 6 6 6 5
13 13 12 12 12 11 11 10 10 9 8 6 5 3 3 2 3 3 4 5 6 7 9 10 10 10 9 9 9 8 7 7 6 6 5 5 5 5 6 6 7 7 6 6 5
12 12 12 11 11 10 9 9 8 7 5 4 2 2 1 1 1 1 1 2 2 3 5 8 10 10 10 10 9 9 9 8 7 6 6 5 4 4 5 5 6 6 6 6 5
12 12 11 11 10 9 8 7 6 5 3 2 2 1 1 1 1 0 0 0 0 1 3 6 8 9 9 9 9 9 9 9 8 7 6 5 4 3 3 4 5 5 5 5 5
11 11 11 10 8 7 7 6 5 3 2 1 1 1 1 1 1 1 0 -0 -0 -0 1 3 5 6 7 8 8 9 9 8 7 6 5 5 4 3 3 4 4 4 5 5 5
11 11 10 9 7 6 6 5 4 3 2 1 1 1 1 1 1 1 0 0 0 0 1 1 2 3 4 6 7 8 8 6 4 3 3 4 4 3 4 5 5 4 5 5 6
10 10 9 7 6 6 5 5 4 2 2 1 1 1 1 1 1 1 1 0 0 0 0 0 1 1 2 3 5 7 7 5 3 2 3 4 4 4 6 6 5 5 5 6 6
9 8 7 6 5 5 5 5 4 2 2 1 1 1 1 1 1 0 0 0 -0 -0 0 0 0 0 1 2 3 5 6 6 5 3 3 3 3 5 5 5 4 4 5 5 5
8 7 6 5 5 5 5 4 4 2 1 1 1 1 1 1 0 0 0 -0 -0 -0 -0 0 0 0 0 1 2 3 4 5 6 4 2 1 2 4 4 3 3 4 4 4 3
8 7 6 5 5 5 5 4 3 2 1 1 0 0 1 0 0 0 -0 -0 -0 -0 0 0 1 1 1 1 2 2 3 4 5 5 3 1 2 5 5 4 3 3 3 3 2
8 7 6 6 6 5 5 4 3 2 1 1 0 0 0 0 0 0 0 0 0 0 0 1 1 1 1 1 1 1 2 3 5 6 5 3 3 5 6 4 3 2 2 1 0
8 7 7 7 7 6 5 4 3 2 1 1 1 0 0 0 0 0 0 0 0 0 0 1 1 1 1 1 1 1 2 3 5 7 6 4 4 5 5 4 3 2 0 -0 -1
8 8 8 8 7 6 5 4 3 2 1 1 1 1 1 1 1 1 1 1 1 0 0 0 1 1 1 1 1 1 2 3 5 7 7 5 5 4 3 3 3 1 -0 -2 -2
8 7 8 8 8 6 5 4 3 3 2 1 1 1 1 1 1 1 1 1 1 0 0 1 1 1 1 1 1 1 2 3 5 7 8 7 6 4 3 3 2 1 -1 -2 -3
8 8 8 9 8 6 5 4 4 3 2 2 1 1 1 1 1 1 1 1 1 1 1 1 1 1 1 1 1 1 1 3 5 7 8 8 6 5 4 2 1 0 -1 -2 -3
8 9 9 9 8 7 5 4 4 3 3 2 2 2 2 2 1 1 1 1 1 1 1 1 2 2 1 1 1 1 1 3 5 7 8 8 6 5 4 2 0 -1 -1 -2 -3